TG5ALY-16 Weather Reports


time (UTC)temp
C
wind
direction
speed
KPH
gust
KPH
rain 1hr
cm
rain 24hr
cm
rain mn
cm
humidity
%
barometer
mb
20260504081912 11 319 3.2 8.0 0.00 0.00 0.00 94 1018.0
20260504080911 10 138 6.4 6.4 0.00 0.00 0.00 94 1019.0
20260504045858 11 96 6.4 6.4 0.00 0.00 0.00 97 1020.0
20260504044858 11 13 4.8 4.8 0.00 0.00 0.00 97 1020.0
20260504043857 11 13 4.8 4.8 0.00 0.00 0.00 97 1020.0
20260504042857 11 114 1.6 1.6 0.00 0.00 0.00 97 1020.0
20260504041856 12 34 4.8 8.0 0.00 0.00 0.00 97 1020.0
20260504040855 12 34 4.8 8.0 0.00 0.00 0.00 97 1020.0
20260504035855 12 34 4.8 8.0 0.00 0.00 0.00 97 1020.0
20260504034854 12 34 4.8 8.0 0.00 0.00 0.00 97 1020.0
20260504033853 12 34 4.8 8.0 0.00 0.00 0.00 97 1020.0
20260504032853 12 84 6.4 6.4 0.00 0.00 0.00 97 1019.0
20260504031852 12 84 6.4 6.4 0.00 0.00 0.00 97 1019.0
20260504030851 12 54 1.6 1.6 0.00 0.00 0.00 97 1019.0
20260504025850 12 54 1.6 1.6 0.00 0.00 0.00 97 1019.0
20260504024850 12 28 4.8 4.8 0.00 0.00 0.00 97 1019.0
20260504023849 12 28 4.8 4.8 0.00 0.00 0.00 97 1019.0
20260504022849 12 49 1.6 4.8 0.00 0.00 0.00 97 1019.0
20260504021848 11 49 1.6 4.8 0.58 0.00 0.00 97 1019.0
20260504020847 11 49 1.6 4.8 0.58 0.00 0.00 97 1019.0
20260504015846 11 49 1.6 4.8 0.58 0.00 0.00 97 1019.0
20260504014846 12 66 1.6 1.6 0.58 0.00 0.00 97 1019.0
20260504013845 12 66 1.6 1.6 0.58 0.00 0.00 95 1018.0
20260504012845 13 342 6.4 6.4 0.10 0.00 0.00 90 1018.0
20260504011844 13 342 6.4 6.4 0.10 0.00 0.00 90 1018.0
20260504010843 13 342 6.4 6.4 0.10 0.00 0.00 90 1018.0
20260504005843 15 0 0.0 0.0 0.00 0.00 0.00 89 1018.0
20260504004842 14 318 1.6 1.6 0.00 0.00 0.00 89 1018.0
20260504003841 14 318 1.6 1.6 0.00 0.00 0.00 88 1017.0
20260504002841 14 239 1.6 1.6 0.00 0.00 0.00 86 1016.0
20260504001840 14 239 1.6 1.6 0.00 0.00 0.00 86 1016.0
20260504000840 15 240 1.6 1.6 0.03 0.00 0.00 86 1016.0
20260503235839 15 240 1.6 1.6 0.00 0.00 0.00 86 1016.0
20260503234838 15 300 8.0 8.0 0.00 0.00 0.00 84 1016.0
20260503233838 15 300 8.0 8.0 0.00 0.00 0.00 84 1016.0
20260503232837 17 18 12.9 12.9 0.03 0.00 0.00 68 1015.0
20260503231837 17 18 12.9 12.9 0.00 0.00 0.00 66 1015.0
20260503230836 19 60 1.6 1.6 0.00 0.00 0.00 58 1015.0
20260503225835 19 60 1.6 1.6 0.00 0.00 0.00 58 1015.0
20260503224835 20 78 8.0 8.0 0.00 0.00 0.00 54 1015.0
20260503223834 20 78 8.0 8.0 0.00 0.00 0.00 54 1015.0
20260503222833 20 0 0.0 0.0 0.00 0.00 0.00 60 1015.0
20260503221833 20 0 0.0 0.0 0.00 0.00 0.00 60 1015.0
20260503220832 20 0 0.0 0.0 0.00 0.00 0.00 60 1015.0
20260503215831 21 360 14.5 0.0 0.00 0.00 0.00 46 1015.0
20260503214831 21 360 14.5 0.0 0.03 0.00 0.00 45 1015.0
20260503213830 21 360 14.5 0.0 0.03 0.00 0.00 45 1015.0
20260503212829 21 360 14.5 0.0 0.03 0.00 0.00 46 1015.0
20260503211829 21 360 14.5 0.0 0.03 0.00 0.00 46 1015.0
20260503210828 21 90 8.0 11.3 0.03 0.00 0.00 49 1015.0
20260503205827 21 360 9.7 0.0 0.03 0.00 0.00 49 1015.0
20260503204826 21 360 9.7 0.0 0.03 0.00 0.00 47 1015.0
20260503203826 21 360 9.7 0.0 0.03 0.00 0.00 47 1015.0
20260503202825 21 360 9.7 0.0 0.03 0.00 0.00 50 1015.0
20260503201824 21 360 9.7 0.0 0.03 0.00 0.00 50 1015.0
20260503200824 20 360 9.7 0.0 0.03 0.00 0.00 53 1015.0
20260503195823 20 360 17.7 0.0 0.03 0.00 0.00 53 1015.0
20260503194822 19 90 8.0 11.3 0.03 0.00 0.00 59 1015.0
20260503193822 19 90 8.0 11.3 0.03 0.00 0.00 59 1015.0
20260503192821 19 90 8.0 11.3 0.00 0.00 0.00 59 1016.0
20260503191820 19 108 4.8 4.8 0.00 0.00 0.00 59 1016.0
20260503190820 19 318 6.4 6.4 0.00 0.00 0.00 60 1016.0
20260503185819 19 140 17.7 0.0 0.00 0.00 0.00 58 1016.0
20260503184818 19 140 17.7 0.0 0.00 0.00 0.00 59 1016.0
20260503183818 18 140 17.7 0.0 0.00 0.00 0.00 61 1016.0
20260503182817 18 140 17.7 0.0 0.00 0.00 0.00 61 1016.0
20260503181816 19 140 17.7 0.0 0.00 0.00 0.00 60 1016.0
20260503180816 19 140 17.7 0.0 0.00 0.00 0.00 58 1016.0
20260503175815 21 0 0.0 0.0 0.00 0.00 0.00 50 1016.0
20260503174814 20 0 0.0 0.0 0.00 0.00 0.00 54 1016.0
20260503173813 19 312 20.9 22.5 0.00 0.00 0.00 61 1016.0
20260503172813 19 312 20.9 22.5 0.00 0.00 0.00 60 1017.0
20260503171812 19 329 17.7 20.9 0.00 0.00 0.00 56 1017.0
20260503170811 19 329 17.7 20.9 0.00 0.00 0.00 57 1017.0
20260503150803 17 342 1.6 1.6 0.00 0.00 0.00 69 1017.0
20260503130755 13 48 6.4 8.0 0.00 0.00 0.00 83 1018.0
20260503110747 13 324 8.0 8.0 0.00 0.00 0.00 91 1019.0